DW6536 Weather Reports


Display with metric or nautical units.
time (UTC)temp
F
wind
direction
speed
MPH
gust
MPH
rain 1hr
in
rain 24hr
in
rain mn
in
humidity
%
barometer
mb
20260902213059 104 187 2.0 0.0 0.00 0.00 0.00 35 1008.3
20260902211557 106 217 2.0 0.0 0.00 0.00 0.00 35 1008.3
20260902210058 105 226 2.0 0.0 0.00 0.00 0.00 34 1008.4
20260902204554 105 143 2.0 0.0 0.00 0.00 0.00 35 1008.6
20260902203051 106 283 2.0 0.0 0.00 0.00 0.00 35 1008.8
20260902201557 104 193 2.0 0.0 0.00 0.00 0.00 36 1009.1
20260902200044 103 187 2.0 0.0 0.00 0.00 0.00 37 1009.4
20260902194540 102 165 2.0 0.0 0.00 0.00 0.00 37 1009.7
20260902193037 101 309 1.0 0.0 0.00 0.00 0.00 39 1009.9
20260902191535 100 234 2.0 0.0 0.00 0.00 0.00 40 1010.3
20260902190031 98 257 2.0 0.0 0.00 0.00 0.00 42 1010.4
20260902184530 97 120 1.0 0.0 0.00 0.00 0.00 44 1010.6
20260902183028 99 316 3.0 0.0 0.00 0.00 0.00 42 1010.9
20260902181526 98 229 3.0 0.0 0.00 0.00 0.00 43 1011.1
20260902180024 99 201 2.0 0.0 0.00 0.00 0.00 43 1011.4
20260902174520 98 33 2.0 0.0 0.00 0.00 0.00 43 1011.8
20260902173033 98 18 2.0 0.0 0.00 0.00 0.00 45 1012.0
20260902171516 97 101 1.0 0.0 0.00 0.00 0.00 45 1012.2
20260902170014 96 21 1.0 0.0 0.00 0.00 0.00 46 1012.3
20260902164510 96 116 2.0 0.0 0.00 0.00 0.00 47 1012.7
20260902163008 95 275 2.0 0.0 0.00 0.00 0.00 49 1012.8
20260902161507 94 302 2.0 0.0 0.00 0.00 0.00 49 1012.8
20260902160007 93 12 1.0 0.0 0.00 0.00 0.00 50 1012.8
20260902154606 92 268 1.0 0.0 0.00 0.00 0.00 52 1012.9
20260902153058 91 185 1.0 0.0 0.00 0.00 0.00 54 1012.9
20260902151604 90 279 1.0 0.0 0.00 0.00 0.00 56 1012.9
20260902150046 88 226 1.0 0.0 0.00 0.00 0.00 59 1012.8
20260902144542 86 203 1.0 0.0 0.00 0.00 0.00 64 1012.8
20260902143044 84 293 1.0 0.0 0.00 0.00 0.00 67 1012.9
20260902141538 82 287 1.0 0.0 0.00 0.00 0.00 70 1012.9
20260902140039 81 318 1.0 0.0 0.00 0.00 0.00 72 1012.8
20260902134540 80 282 1.0 0.0 0.00 0.00 0.00 73 1012.8
20260902133046 79 245 0.0 0.0 0.00 0.00 0.00 76 1012.7
20260902131536 78 183 0.0 0.0 0.00 0.00 0.00 77 1012.5
20260902130033 77 118 0.0 0.0 0.00 0.00 0.00 78 1012.4
20260902124531 77 245 0.0 0.0 0.00 0.00 0.00 78 1012.3
20260902123032 76 245 0.0 0.0 0.00 0.00 0.00 79 1012.1
20260902121530 76 230 0.0 0.0 0.00 0.00 0.00 79 1012.0
20260902120037 76 160 0.0 0.0 0.00 0.00 0.00 78 1011.9
20260902114536 76 160 0.0 0.0 0.00 0.00 0.00 78 1011.9
20260902113027 76 160 0.0 0.0 0.00 0.00 0.00 78 1011.7
20260902111539 76 137 0.0 0.0 0.00 0.00 0.00 78 1011.8
20260902110048 77 137 0.0 0.0 0.00 0.00 0.00 77 1011.8
20260902104527 77 137 0.0 0.0 0.00 0.00 0.00 77 1011.8
20260902103021 77 137 0.0 0.0 0.00 0.00 0.00 76 1011.8
20260902101521 78 137 0.0 0.0 0.00 0.00 0.00 76 1011.8
20260902100020 78 137 0.0 0.0 0.00 0.00 0.00 76 1011.8
20260902094521 78 137 0.0 0.0 0.00 0.00 0.00 76 1011.8
20260902093016 78 137 0.0 0.0 0.00 0.00 0.00 77 1011.9
20260902091516 78 137 0.0 0.0 0.00 0.00 0.00 78 1011.9
20260902090016 78 137 0.0 0.0 0.00 0.00 0.00 78 1012.0
20260902084513 79 137 0.0 0.0 0.00 0.00 0.00 77 1012.0
20260902083016 79 137 0.0 0.0 0.00 0.00 0.00 76 1011.8
20260902081509 80 137 0.0 0.0 0.00 0.00 0.00 75 1012.1
20260902080008 80 137 0.0 0.0 0.00 0.00 0.00 74 1012.1
20260902074506 81 137 0.0 0.0 0.00 0.00 0.00 74 1012.0
20260902073005 81 149 0.0 0.0 0.00 0.00 0.00 74 1012.1
20260902071504 81 168 0.0 0.0 0.00 0.00 0.00 73 1012.2
20260902070001 82 168 0.0 0.0 0.00 0.00 0.00 72 1012.3
20260902064559 82 168 0.0 0.0 0.00 0.00 0.00 71 1012.3
20260902064500 82 168 0.0 0.0 0.00 0.00 0.00 71 1012.3
20260902063104 83 168 0.0 0.0 0.00 0.00 0.00 71 1012.3
20260902061612 83 131 0.0 0.0 0.00 0.00 0.00 70 1012.2
20260902060054 83 187 1.0 0.0 0.00 0.00 0.00 70 1012.2
20260902054552 84 162 0.0 0.0 0.00 0.00 0.00 69 1012.1
20260902053052 84 116 1.0 0.0 0.00 0.00 0.00 68 1012.1
20260902051549 84 191 0.0 0.0 0.00 0.00 0.00 68 1012.0
20260902050047 85 130 1.0 0.0 0.00 0.00 0.00 66 1012.1
20260902044546 85 151 1.0 0.0 0.00 0.00 0.00 65 1012.2
20260902043049 86 134 1.0 0.0 0.00 0.00 0.00 64 1012.1
20260902041546 86 162 1.0 0.0 0.00 0.00 0.00 63 1012.1
20260902040046 86 156 0.0 0.0 0.00 0.00 0.00 63 1012.0
20260902034545 86 154 0.0 0.0 0.00 0.00 0.00 62 1011.9
20260902033057 87 120 0.0 0.0 0.00 0.00 0.00 61 1011.7
20260902031544 87 141 1.0 0.0 0.00 0.00 0.00 60 1011.6
20260902030044 88 114 1.0 0.0 0.00 0.00 0.00 59 1011.3
20260902024543 88 186 1.0 0.0 0.00 0.00 0.00 58 1010.9
20260902023046 89 153 0.0 0.0 0.00 0.00 0.00 56 1010.8
20260902021543 89 161 1.0 0.0 0.00 0.00 0.00 55 1010.6
20260902020043 90 93 1.0 0.0 0.00 0.00 0.00 53 1010.4
20260902014542 90 127 1.0 0.0 0.00 0.00 0.00 52 1010.1
20260902013041 91 139 0.0 0.0 0.00 0.00 0.00 50 1010.0
20260902011541 92 128 0.0 0.0 0.00 0.00 0.00 49 1009.8
20260902010047 92 135 1.0 0.0 0.00 0.00 0.00 48 1009.7
20260902004540 93 131 1.0 0.0 0.00 0.00 0.00 47 1009.8
20260902003039 94 120 1.0 0.0 0.00 0.00 0.00 45 1010.0
20260902001540 95 112 1.0 0.0 0.00 0.00 0.00 44 1009.9
20260902000038 96 86 1.0 0.0 0.00 0.00 0.00 43 1009.9
20260901234537 97 212 1.0 0.0 0.00 0.00 0.00 44 1009.8
20260901233038 97 150 1.0 0.0 0.00 0.00 0.00 43 1009.8
20260901231538 96 150 1.0 0.0 0.00 0.00 0.00 44 1009.8
20260901230042 97 97 1.0 0.0 0.00 0.00 0.00 43 1009.7
20260901224535 98 67 2.0 0.0 0.00 0.00 0.00 43 1009.7
20260901223034 97 122 1.0 0.0 0.00 0.00 0.00 43 1009.8
20260901221551 97 129 2.0 0.0 0.00 0.00 0.00 44 1009.8
20260901220033 96 124 1.0 0.0 0.00 0.00 0.00 44 1009.8
20260901214532 98 55 1.0 0.0 0.00 0.00 0.00 43 1009.8